Data supplied by UK-AIR on 5/4/2008
All Data GMT hour ending 
Status: R =Ratified P=Provisional,P*=As supplied
,,Lullington Heath,,,,,,,,,,,,,,,,,,,,,,,
Date,time,"Nitric oxide",status,unit,"Nitrogen dioxide",status,unit,"Nitrogen oxides as nitrogen dioxide",status,unit,"Ozone",status,unit,"Sulphur dioxide",status,unit
 
01-01-1991,01:00,,,,,,,,,,,,,,,
01-01-1991,02:00,0.6,R,ugm-3,32.1,R,ugm-3,33.0,R,ugm-3,30,R,ugm-3,9.3,R,ugm-3
01-01-1991,03:00,0.6,R,ugm-3,31.1,R,ugm-3,32.1,R,ugm-3,32,R,ugm-3,6.7,R,ugm-3
01-01-1991,04:00,0.6,R,ugm-3,27.5,R,ugm-3,28.5,R,ugm-3,36,R,ugm-3,10.1,R,ugm-3
01-01-1991,05:00,0.6,R,ugm-3,21.2,R,ugm-3,22.2,R,ugm-3,42,R,ugm-3,12.8,R,ugm-3
01-01-1991,06:00,0.6,R,ugm-3,15.9,R,ugm-3,16.8,R,ugm-3,50,R,ugm-3,9.0,R,ugm-3
01-01-1991,07:00,0.6,R,ugm-3,9.4,R,ugm-3,10.3,R,ugm-3,60,R,ugm-3,4.3,R,ugm-3
01-01-1991,08:00,0.6,R,ugm-3,9.6,R,ugm-3,10.5,R,ugm-3,60,R,ugm-3,2.9,R,ugm-3
01-01-1991,09:00,0.6,R,ugm-3,4.6,R,ugm-3,5.5,R,ugm-3,72,R,ugm-3,2.4,R,ugm-3
01-01-1991,10:00,0.6,R,ugm-3,2.1,R,ugm-3,3.1,R,ugm-3,76,R,ugm-3,1.6,R,ugm-3
01-01-1991,11:00,0.6,R,ugm-3,4.4,R,ugm-3,5.3,R,ugm-3,76,R,ugm-3,1.6,R,ugm-3
01-01-1991,12:00,0.6,R,ugm-3,5.0,R,ugm-3,5.9,R,ugm-3,74,R,ugm-3,1.9,R,ugm-3
01-01-1991,13:00,0.8,R,ugm-3,3.1,R,ugm-3,4.2,R,ugm-3,74,R,ugm-3,1.3,R,ugm-3
01-01-1991,14:00,0.8,R,ugm-3,3.4,R,ugm-3,4.6,R,ugm-3,74,R,ugm-3,1.3,R,ugm-3
01-01-1991,15:00,0.6,R,ugm-3,4.8,R,ugm-3,5.7,R,ugm-3,72,R,ugm-3,1.1,R,ugm-3
01-01-1991,16:00,0.6,R,ugm-3,3.8,R,ugm-3,4.8,R,ugm-3,74,R,ugm-3,1.1,R,ugm-3
01-01-1991,17:00,0.0,R,ugm-3,3.4,R,ugm-3,3.4,R,ugm-3,74,R,ugm-3,0.5,R,ugm-3
01-01-1991,18:00,0.1,R,ugm-3,3.4,R,ugm-3,3.6,R,ugm-3,70,R,ugm-3,0.5,R,ugm-3
01-01-1991,19:00,0.1,R,ugm-3,2.9,R,ugm-3,3.1,R,ugm-3,74,R,ugm-3,0.3,R,ugm-3
01-01-1991,20:00,0.1,R,ugm-3,2.9,R,ugm-3,3.1,R,ugm-3,74,R,ugm-3,0.0,R,ugm-3
01-01-1991,21:00,0.1,R,ugm-3,3.1,R,ugm-3,3.2,R,ugm-3,76,R,ugm-3,0.0,R,ugm-3
01-01-1991,22:00,0.1,R,ugm-3,2.9,R,ugm-3,3.1,R,ugm-3,76,R,ugm-3,0.0,R,ugm-3
01-01-1991,23:00,0.0,R,ugm-3,2.7,R,ugm-3,2.7,R,ugm-3,78,R,ugm-3,0.0,R,ugm-3
01-01-1991,24:00,0.0,R,ugm-3,2.9,R,ugm-3,2.9,R,ugm-3,78,R,ugm-3,0.0,R,ugm-3
02-01-1991,01:00,0.4,R,ugm-3,2.3,R,ugm-3,2.9,R,ugm-3,76,R,ugm-3,0.3,R,ugm-3
02-01-1991,02:00,0.4,R,ugm-3,2.9,R,ugm-3,3.4,R,ugm-3,76,R,ugm-3,0.3,R,ugm-3
02-01-1991,03:00,0.0,R,ugm-3,3.1,R,ugm-3,3.1,R,ugm-3,76,R,ugm-3,0.3,R,ugm-3
02-01-1991,04:00,0.1,R,ugm-3,3.6,R,ugm-3,3.8,R,ugm-3,72,R,ugm-3,0.3,R,ugm-3
02-01-1991,05:00,0.0,R,ugm-3,3.1,R,ugm-3,3.1,R,ugm-3,74,R,ugm-3,0.3,R,ugm-3
02-01-1991,06:00,0.1,R,ugm-3,3.1,R,ugm-3,3.2,R,ugm-3,72,R,ugm-3,0.3,R,ugm-3
02-01-1991,07:00,0.1,R,ugm-3,2.9,R,ugm-3,3.1,R,ugm-3,70,R,ugm-3,0.3,R,ugm-3
02-01-1991,08:00,0.4,R,ugm-3,3.2,R,ugm-3,3.8,R,ugm-3,70,R,ugm-3,0.3,R,ugm-3
02-01-1991,09:00,0.0,R,ugm-3,4.4,R,ugm-3,4.4,R,ugm-3,68,R,ugm-3,0.3,R,ugm-3
02-01-1991,10:00,0.4,R,ugm-3,3.8,R,ugm-3,4.4,R,ugm-3,68,R,ugm-3,0.5,R,ugm-3
02-01-1991,11:00,0.5,R,ugm-3,5.0,R,ugm-3,5.7,R,ugm-3,68,R,ugm-3,0.5,R,ugm-3
02-01-1991,12:00,0.4,R,ugm-3,2.7,R,ugm-3,3.2,R,ugm-3,74,R,ugm-3,0.3,R,ugm-3
02-01-1991,13:00,0.4,R,ugm-3,1.9,R,ugm-3,2.5,R,ugm-3,72,R,ugm-3,0.3,R,ugm-3
02-01-1991,14:00,0.1,R,ugm-3,2.7,R,ugm-3,2.9,R,ugm-3,76,R,ugm-3,0.3,R,ugm-3
02-01-1991,15:00,0.6,R,ugm-3,3.4,R,ugm-3,4.4,R,ugm-3,74,R,ugm-3,0.5,R,ugm-3
02-01-1991,16:00,0.5,R,ugm-3,3.8,R,ugm-3,4.6,R,ugm-3,72,R,ugm-3,0.5,R,ugm-3
02-01-1991,17:00,0.1,R,ugm-3,3.6,R,ugm-3,3.8,R,ugm-3,72,R,ugm-3,0.3,R,ugm-3
02-01-1991,18:00,0.4,R,ugm-3,3.1,R,ugm-3,3.6,R,ugm-3,76,R,ugm-3,0.3,R,ugm-3
02-01-1991,19:00,0.0,R,ugm-3,4.0,R,ugm-3,4.0,R,ugm-3,70,R,ugm-3,0.3,R,ugm-3
02-01-1991,20:00,0.1,R,ugm-3,10.1,R,ugm-3,10.3,R,ugm-3,60,R,ugm-3,3.5,R,ugm-3
02-01-1991,21:00,0.1,R,ugm-3,5.9,R,ugm-3,6.1,R,ugm-3,62,R,ugm-3,2.1,R,ugm-3
02-01-1991,22:00,0.1,R,ugm-3,4.4,R,ugm-3,4.6,R,ugm-3,68,R,ugm-3,0.5,R,ugm-3
02-01-1991,23:00,0.5,R,ugm-3,4.8,R,ugm-3,5.5,R,ugm-3,64,R,ugm-3,0.5,R,ugm-3
02-01-1991,24:00,0.5,R,ugm-3,6.5,R,ugm-3,7.3,R,ugm-3,68,R,ugm-3,0.8,R,ugm-3
03-01-1991,01:00,0.4,R,ugm-3,3.8,R,ugm-3,4.4,R,ugm-3,70,R,ugm-3,0.5,R,ugm-3
03-01-1991,02:00,0.3,R,ugm-3,2.3,R,ugm-3,2.7,R,ugm-3,72,R,ugm-3,0.3,R,ugm-3
03-01-1991,03:00,0.1,R,ugm-3,2.1,R,ugm-3,2.3,R,ugm-3,72,R,ugm-3,0.3,R,ugm-3
03-01-1991,04:00,0.4,R,ugm-3,1.5,R,ugm-3,2.1,R,ugm-3,74,R,ugm-3,0.3,R,ugm-3
03-01-1991,05:00,0.4,R,ugm-3,2.5,R,ugm-3,3.1,R,ugm-3,74,R,ugm-3,0.3,R,ugm-3
03-01-1991,06:00,0.6,R,ugm-3,1.9,R,ugm-3,2.9,R,ugm-3,76,R,ugm-3,0.3,R,ugm-3
03-01-1991,07:00,0.6,R,ugm-3,2.9,R,ugm-3,3.8,R,ugm-3,74,R,ugm-3,0.5,R,ugm-3
03-01-1991,08:00,0.0,R,ugm-3,4.2,R,ugm-3,4.2,R,ugm-3,72,R,ugm-3,0.3,R,ugm-3
03-01-1991,09:00,0.6,R,ugm-3,5.7,R,ugm-3,6.7,R,ugm-3,72,R,ugm-3,0.5,R,ugm-3
03-01-1991,10:00,0.6,R,ugm-3,8.2,R,ugm-3,9.2,R,ugm-3,72,R,ugm-3,1.1,R,ugm-3
03-01-1991,11:00,0.6,R,ugm-3,5.9,R,ugm-3,6.9,R,ugm-3,76,R,ugm-3,0.8,R,ugm-3
03-01-1991,12:00,0.6,R,ugm-3,7.8,R,ugm-3,8.8,R,ugm-3,74,R,ugm-3,1.6,R,ugm-3
03-01-1991,13:00,0.6,R,ugm-3,4.8,R,ugm-3,5.7,R,ugm-3,74,R,ugm-3,0.8,R,ugm-3
03-01-1991,14:00,0.6,R,ugm-3,6.9,R,ugm-3,7.8,R,ugm-3,66,R,ugm-3,1.1,R,ugm-3
03-01-1991,15:00,0.6,R,ugm-3,11.7,R,ugm-3,12.6,R,ugm-3,60,R,ugm-3,1.3,R,ugm-3
03-01-1991,16:00,0.5,R,ugm-3,6.3,R,ugm-3,7.1,R,ugm-3,70,R,ugm-3,0.8,R,ugm-3
03-01-1991,17:00,0.0,R,ugm-3,5.5,R,ugm-3,5.5,R,ugm-3,70,R,ugm-3,0.5,R,ugm-3
03-01-1991,18:00,0.1,R,ugm-3,6.3,R,ugm-3,6.5,R,ugm-3,66,R,ugm-3,0.3,R,ugm-3
03-01-1991,19:00,0.5,R,ugm-3,4.0,R,ugm-3,4.8,R,ugm-3,76,R,ugm-3,0.3,R,ugm-3
03-01-1991,20:00,0.4,R,ugm-3,9.7,R,ugm-3,10.3,R,ugm-3,66,R,ugm-3,4.0,R,ugm-3
03-01-1991,21:00,0.1,R,ugm-3,7.8,R,ugm-3,8.0,R,ugm-3,66,R,ugm-3,1.1,R,ugm-3
03-01-1991,22:00,0.4,R,ugm-3,6.5,R,ugm-3,7.1,R,ugm-3,68,R,ugm-3,0.8,R,ugm-3
03-01-1991,23:00,0.4,R,ugm-3,3.8,R,ugm-3,4.4,R,ugm-3,72,R,ugm-3,0.8,R,ugm-3
03-01-1991,24:00,0.4,R,ugm-3,5.5,R,ugm-3,6.1,R,ugm-3,68,R,ugm-3,0.8,R,ugm-3
04-01-1991,01:00,0.0,R,ugm-3,3.4,R,ugm-3,3.4,R,ugm-3,72,R,ugm-3,0.8,R,ugm-3
04-01-1991,02:00,0.4,R,ugm-3,2.5,R,ugm-3,3.1,R,ugm-3,68,R,ugm-3,0.8,R,ugm-3
04-01-1991,03:00,0.5,R,ugm-3,1.1,R,ugm-3,1.9,R,ugm-3,72,R,ugm-3,0.3,R,ugm-3
04-01-1991,04:00,0.4,R,ugm-3,1.9,R,ugm-3,2.5,R,ugm-3,72,R,ugm-3,0.3,R,ugm-3
04-01-1991,05:00,0.1,R,ugm-3,3.6,R,ugm-3,3.8,R,ugm-3,70,R,ugm-3,0.5,R,ugm-3
04-01-1991,06:00,0.1,R,ugm-3,1.7,R,ugm-3,1.9,R,ugm-3,72,R,ugm-3,0.3,R,ugm-3
04-01-1991,07:00,0.6,R,ugm-3,1.7,R,ugm-3,2.7,R,ugm-3,74,R,ugm-3,0.3,R,ugm-3
04-01-1991,08:00,0.5,R,ugm-3,3.4,R,ugm-3,4.2,R,ugm-3,72,R,ugm-3,0.3,R,ugm-3
04-01-1991,09:00,0.6,R,ugm-3,3.6,R,ugm-3,4.6,R,ugm-3,70,R,ugm-3,0.5,R,ugm-3
04-01-1991,10:00,0.6,R,ugm-3,3.4,R,ugm-3,4.4,R,ugm-3,70,R,ugm-3,0.5,R,ugm-3
04-01-1991,11:00,0.6,R,ugm-3,3.4,R,ugm-3,4.4,R,ugm-3,72,R,ugm-3,0.5,R,ugm-3
04-01-1991,12:00,0.8,R,ugm-3,7.4,R,ugm-3,8.6,R,ugm-3,68,R,ugm-3,2.4,R,ugm-3
04-01-1991,13:00,0.6,R,ugm-3,5.7,R,ugm-3,6.7,R,ugm-3,68,R,ugm-3,1.3,R,ugm-3
04-01-1991,14:00,0.6,R,ugm-3,4.4,R,ugm-3,5.3,R,ugm-3,70,R,ugm-3,0.8,R,ugm-3
04-01-1991,15:00,0.6,R,ugm-3,4.6,R,ugm-3,5.5,R,ugm-3,70,R,ugm-3,0.5,R,ugm-3
04-01-1991,16:00,0.6,R,ugm-3,4.2,R,ugm-3,5.2,R,ugm-3,70,R,ugm-3,0.3,R,ugm-3
04-01-1991,17:00,0.1,R,ugm-3,5.3,R,ugm-3,5.5,R,ugm-3,72,R,ugm-3,0.3,R,ugm-3
04-01-1991,18:00,0.1,R,ugm-3,5.3,R,ugm-3,5.5,R,ugm-3,74,R,ugm-3,0.3,R,ugm-3
04-01-1991,19:00,0.0,R,ugm-3,5.0,R,ugm-3,5.0,R,ugm-3,76,R,ugm-3,0.3,R,ugm-3
04-01-1991,20:00,0.0,R,ugm-3,3.4,R,ugm-3,3.4,R,ugm-3,78,R,ugm-3,0.3,R,ugm-3
04-01-1991,21:00,0.4,R,ugm-3,3.1,R,ugm-3,3.6,R,ugm-3,80,R,ugm-3,0.3,R,ugm-3
04-01-1991,22:00,0.5,R,ugm-3,2.1,R,ugm-3,2.9,R,ugm-3,78,R,ugm-3,0.3,R,ugm-3
04-01-1991,23:00,0.0,R,ugm-3,2.9,R,ugm-3,2.9,R,ugm-3,76,R,ugm-3,0.3,R,ugm-3
04-01-1991,24:00,0.1,R,ugm-3,2.9,R,ugm-3,3.1,R,ugm-3,74,R,ugm-3,0.3,R,ugm-3
05-01-1991,01:00,0.3,R,ugm-3,2.9,R,ugm-3,3.2,R,ugm-3,74,R,ugm-3,0.5,R,ugm-3
05-01-1991,02:00,0.3,R,ugm-3,3.4,R,ugm-3,3.8,R,ugm-3,74,R,ugm-3,0.5,R,ugm-3
05-01-1991,03:00,0.6,R,ugm-3,2.1,R,ugm-3,3.1,R,ugm-3,74,R,ugm-3,0.3,R,ugm-3
05-01-1991,04:00,0.4,R,ugm-3,3.6,R,ugm-3,4.2,R,ugm-3,70,R,ugm-3,0.3,R,ugm-3
05-01-1991,05:00,0.5,R,ugm-3,2.9,R,ugm-3,3.6,R,ugm-3,68,R,ugm-3,0.3,R,ugm-3
05-01-1991,06:00,0.0,R,ugm-3,3.4,R,ugm-3,3.4,R,ugm-3,70,R,ugm-3,0.3,R,ugm-3
05-01-1991,07:00,0.0,R,ugm-3,3.1,R,ugm-3,3.1,R,ugm-3,70,R,ugm-3,0.3,R,ugm-3
05-01-1991,08:00,0.0,R,ugm-3,3.6,R,ugm-3,3.6,R,ugm-3,72,R,ugm-3,0.3,R,ugm-3
05-01-1991,09:00,0.0,R,ugm-3,3.4,R,ugm-3,3.4,R,ugm-3,76,R,ugm-3,0.3,R,ugm-3
05-01-1991,10:00,0.1,R,ugm-3,3.6,R,ugm-3,3.8,R,ugm-3,78,R,ugm-3,0.3,R,ugm-3
05-01-1991,11:00,0.6,R,ugm-3,3.1,R,ugm-3,4.0,R,ugm-3,80,R,ugm-3,0.3,R,ugm-3
05-01-1991,12:00,0.6,R,ugm-3,4.4,R,ugm-3,5.3,R,ugm-3,78,R,ugm-3,0.5,R,ugm-3
05-01-1991,13:00,0.6,R,ugm-3,4.0,R,ugm-3,5.0,R,ugm-3,78,R,ugm-3,0.5,R,ugm-3
05-01-1991,14:00,0.4,R,ugm-3,3.4,R,ugm-3,4.0,R,ugm-3,78,R,ugm-3,0.3,R,ugm-3
05-01-1991,15:00,0.5,R,ugm-3,3.1,R,ugm-3,3.8,R,ugm-3,78,R,ugm-3,0.3,R,ugm-3
05-01-1991,16:00,0.5,R,ugm-3,3.6,R,ugm-3,4.4,R,ugm-3,76,R,ugm-3,0.3,R,ugm-3
05-01-1991,17:00,0.1,R,ugm-3,3.1,R,ugm-3,3.2,R,ugm-3,74,R,ugm-3,0.0,R,ugm-3
05-01-1991,18:00,0.0,R,ugm-3,3.8,R,ugm-3,3.8,R,ugm-3,76,R,ugm-3,0.3,R,ugm-3
05-01-1991,19:00,0.1,R,ugm-3,3.8,R,ugm-3,4.0,R,ugm-3,72,R,ugm-3,0.3,R,ugm-3
05-01-1991,20:00,0.1,R,ugm-3,3.4,R,ugm-3,3.6,R,ugm-3,70,R,ugm-3,0.0,R,ugm-3
05-01-1991,21:00,0.1,R,ugm-3,2.7,R,ugm-3,2.9,R,ugm-3,72,R,ugm-3,0.0,R,ugm-3
05-01-1991,22:00,0.0,R,ugm-3,2.9,R,ugm-3,2.9,R,ugm-3,72,R,ugm-3,0.0,R,ugm-3
05-01-1991,23:00,0.4,R,ugm-3,2.1,R,ugm-3,2.7,R,ugm-3,72,R,ugm-3,0.0,R,ugm-3
05-01-1991,24:00,0.0,R,ugm-3,2.9,R,ugm-3,2.9,R,ugm-3,70,R,ugm-3,0.0,R,ugm-3
06-01-1991,01:00,0.4,R,ugm-3,1.9,R,ugm-3,2.5,R,ugm-3,72,R,ugm-3,0.0,R,ugm-3
06-01-1991,02:00,0.3,R,ugm-3,3.4,R,ugm-3,3.8,R,ugm-3,70,R,ugm-3,0.3,R,ugm-3
06-01-1991,03:00,0.1,R,ugm-3,1.7,R,ugm-3,1.9,R,ugm-3,70,R,ugm-3,0.0,R,ugm-3
06-01-1991,04:00,0.0,R,ugm-3,1.9,R,ugm-3,1.9,R,ugm-3,70,R,ugm-3,0.0,R,ugm-3
06-01-1991,05:00,0.4,R,ugm-3,1.5,R,ugm-3,2.1,R,ugm-3,72,R,ugm-3,0.0,R,ugm-3
06-01-1991,06:00,0.1,R,ugm-3,1.9,R,ugm-3,2.1,R,ugm-3,72,R,ugm-3,0.0,R,ugm-3
06-01-1991,07:00,0.1,R,ugm-3,2.5,R,ugm-3,2.7,R,ugm-3,72,R,ugm-3,0.0,R,ugm-3
06-01-1991,08:00,0.1,R,ugm-3,2.1,R,ugm-3,2.3,R,ugm-3,72,R,ugm-3,0.0,R,ugm-3
06-01-1991,09:00,0.1,R,ugm-3,2.7,R,ugm-3,2.9,R,ugm-3,72,R,ugm-3,0.0,R,ugm-3
06-01-1991,10:00,0.6,R,ugm-3,1.9,R,ugm-3,2.9,R,ugm-3,70,R,ugm-3,0.3,R,ugm-3
06-01-1991,11:00,0.6,R,ugm-3,2.5,R,ugm-3,3.4,R,ugm-3,68,R,ugm-3,0.3,R,ugm-3
06-01-1991,12:00,0.6,R,ugm-3,3.4,R,ugm-3,4.4,R,ugm-3,70,R,ugm-3,0.3,R,ugm-3
06-01-1991,13:00,0.6,R,ugm-3,3.6,R,ugm-3,4.6,R,ugm-3,70,R,ugm-3,0.3,R,ugm-3
06-01-1991,14:00,0.6,R,ugm-3,4.8,R,ugm-3,5.7,R,ugm-3,68,R,ugm-3,0.5,R,ugm-3
06-01-1991,15:00,0.6,R,ugm-3,5.9,R,ugm-3,6.9,R,ugm-3,68,R,ugm-3,1.1,R,ugm-3
06-01-1991,16:00,0.4,R,ugm-3,3.4,R,ugm-3,4.0,R,ugm-3,72,R,ugm-3,0.5,R,ugm-3
06-01-1991,17:00,0.1,R,ugm-3,4.8,R,ugm-3,5.0,R,ugm-3,70,R,ugm-3,0.5,R,ugm-3
06-01-1991,18:00,0.0,R,ugm-3,3.8,R,ugm-3,3.8,R,ugm-3,70,R,ugm-3,0.3,R,ugm-3
06-01-1991,19:00,0.1,R,ugm-3,4.4,R,ugm-3,4.6,R,ugm-3,66,R,ugm-3,0.5,R,ugm-3
06-01-1991,20:00,0.4,R,ugm-3,4.0,R,ugm-3,4.6,R,ugm-3,68,R,ugm-3,0.3,R,ugm-3
06-01-1991,21:00,0.4,R,ugm-3,5.0,R,ugm-3,5.5,R,ugm-3,68,R,ugm-3,0.5,R,ugm-3
06-01-1991,22:00,0.0,R,ugm-3,5.3,R,ugm-3,5.3,R,ugm-3,64,R,ugm-3,0.5,R,ugm-3
06-01-1991,23:00,0.1,R,ugm-3,4.0,R,ugm-3,4.2,R,ugm-3,66,R,ugm-3,0.5,R,ugm-3
06-01-1991,24:00,0.1,R,ugm-3,4.6,R,ugm-3,4.8,R,ugm-3,64,R,ugm-3,0.5,R,ugm-3
07-01-1991,01:00,0.3,R,ugm-3,4.4,R,ugm-3,4.8,R,ugm-3,66,R,ugm-3,0.5,R,ugm-3
07-01-1991,02:00,0.6,R,ugm-3,6.3,R,ugm-3,7.3,R,ugm-3,62,R,ugm-3,0.5,R,ugm-3
07-01-1991,03:00,0.1,R,ugm-3,5.9,R,ugm-3,6.1,R,ugm-3,64,R,ugm-3,0.5,R,ugm-3
07-01-1991,04:00,0.6,R,ugm-3,6.9,R,ugm-3,7.8,R,ugm-3,64,R,ugm-3,0.8,R,ugm-3
07-01-1991,05:00,0.5,R,ugm-3,3.1,R,ugm-3,3.8,R,ugm-3,72,R,ugm-3,0.3,R,ugm-3
07-01-1991,06:00,0.1,R,ugm-3,2.9,R,ugm-3,3.1,R,ugm-3,76,R,ugm-3,0.3,R,ugm-3
07-01-1991,07:00,0.0,R,ugm-3,3.4,R,ugm-3,3.4,R,ugm-3,74,R,ugm-3,0.0,R,ugm-3
07-01-1991,08:00,0.1,R,ugm-3,4.0,R,ugm-3,4.2,R,ugm-3,72,R,ugm-3,0.3,R,ugm-3
07-01-1991,09:00,0.4,R,ugm-3,5.3,R,ugm-3,5.9,R,ugm-3,68,R,ugm-3,0.3,R,ugm-3
07-01-1991,10:00,0.6,R,ugm-3,5.0,R,ugm-3,5.9,R,ugm-3,70,R,ugm-3,0.5,R,ugm-3
07-01-1991,11:00,0.8,R,ugm-3,5.3,R,ugm-3,6.5,R,ugm-3,68,R,ugm-3,0.5,R,ugm-3
07-01-1991,12:00,0.6,R,ugm-3,4.6,R,ugm-3,5.5,R,ugm-3,70,R,ugm-3,0.3,R,ugm-3
07-01-1991,13:00,0.6,R,ugm-3,4.4,R,ugm-3,5.3,R,ugm-3,72,R,ugm-3,0.3,R,ugm-3
07-01-1991,14:00,0.6,R,ugm-3,3.8,R,ugm-3,4.8,R,ugm-3,72,R,ugm-3,0.3,R,ugm-3
07-01-1991,15:00,0.6,R,ugm-3,3.4,R,ugm-3,4.4,R,ugm-3,74,R,ugm-3,0.5,R,ugm-3
07-01-1991,16:00,0.6,R,ugm-3,3.4,R,ugm-3,4.4,R,ugm-3,76,R,ugm-3,0.5,R,ugm-3
07-01-1991,17:00,0.0,R,ugm-3,3.8,R,ugm-3,3.8,R,ugm-3,78,R,ugm-3,0.3,R,ugm-3
07-01-1991,18:00,0.4,R,ugm-3,4.0,R,ugm-3,4.6,R,ugm-3,76,R,ugm-3,0.3,R,ugm-3
07-01-1991,19:00,0.0,R,ugm-3,4.4,R,ugm-3,4.4,R,ugm-3,74,R,ugm-3,0.0,R,ugm-3
07-01-1991,20:00,0.1,R,ugm-3,3.8,R,ugm-3,4.0,R,ugm-3,78,R,ugm-3,0.0,R,ugm-3
07-01-1991,21:00,0.0,R,ugm-3,4.0,R,ugm-3,4.0,R,ugm-3,78,R,ugm-3,0.3,R,ugm-3
07-01-1991,22:00,0.1,R,ugm-3,3.4,R,ugm-3,3.6,R,ugm-3,78,R,ugm-3,0.3,R,ugm-3
07-01-1991,23:00,0.0,R,ugm-3,2.5,R,ugm-3,2.5,R,ugm-3,80,R,ugm-3,0.0,R,ugm-3
07-01-1991,24:00,0.4,R,ugm-3,3.8,R,ugm-3,4.4,R,ugm-3,80,R,ugm-3,0.3,R,ugm-3
08-01-1991,01:00,0.3,R,ugm-3,1.9,R,ugm-3,2.3,R,ugm-3,82,R,ugm-3,0.0,R,ugm-3
08-01-1991,02:00,0.3,R,ugm-3,2.5,R,ugm-3,2.9,R,ugm-3,78,R,ugm-3,0.0,R,ugm-3
08-01-1991,03:00,0.5,R,ugm-3,2.5,R,ugm-3,3.2,R,ugm-3,78,R,ugm-3,0.0,R,ugm-3
08-01-1991,04:00,0.1,R,ugm-3,2.5,R,ugm-3,2.7,R,ugm-3,78,R,ugm-3,0.0,R,ugm-3
08-01-1991,05:00,0.0,R,ugm-3,2.9,R,ugm-3,2.9,R,ugm-3,80,R,ugm-3,0.3,R,ugm-3
08-01-1991,06:00,0.5,R,ugm-3,2.7,R,ugm-3,3.4,R,ugm-3,76,R,ugm-3,0.3,R,ugm-3
08-01-1991,07:00,0.4,R,ugm-3,3.6,R,ugm-3,4.2,R,ugm-3,76,R,ugm-3,0.3,R,ugm-3
08-01-1991,08:00,0.4,R,ugm-3,3.4,R,ugm-3,4.0,R,ugm-3,78,R,ugm-3,0.3,R,ugm-3
08-01-1991,09:00,0.5,R,ugm-3,5.5,R,ugm-3,6.3,R,ugm-3,76,R,ugm-3,0.5,R,ugm-3
08-01-1991,10:00,0.6,R,ugm-3,4.4,R,ugm-3,5.3,R,ugm-3,76,R,ugm-3,0.3,R,ugm-3
08-01-1991,11:00,0.6,R,ugm-3,5.5,R,ugm-3,6.5,R,ugm-3,72,R,ugm-3,0.5,R,ugm-3
08-01-1991,12:00,0.5,R,ugm-3,4.4,R,ugm-3,5.2,R,ugm-3,72,R,ugm-3,0.3,R,ugm-3
08-01-1991,13:00,0.5,R,ugm-3,5.5,R,ugm-3,6.3,R,ugm-3,70,R,ugm-3,0.3,R,ugm-3
08-01-1991,14:00,0.6,R,ugm-3,5.9,R,ugm-3,6.9,R,ugm-3,70,R,ugm-3,0.3,R,ugm-3
08-01-1991,15:00,0.6,R,ugm-3,5.7,R,ugm-3,6.7,R,ugm-3,72,R,ugm-3,0.3,R,ugm-3
08-01-1991,16:00,0.1,R,ugm-3,5.9,R,ugm-3,6.1,R,ugm-3,74,R,ugm-3,0.5,R,ugm-3
08-01-1991,17:00,0.0,R,ugm-3,4.0,R,ugm-3,4.0,R,ugm-3,74,R,ugm-3,0.3,R,ugm-3
08-01-1991,18:00,0.0,R,ugm-3,3.8,R,ugm-3,3.8,R,ugm-3,74,R,ugm-3,0.3,R,ugm-3
08-01-1991,19:00,0.0,R,ugm-3,5.5,R,ugm-3,5.5,R,ugm-3,72,R,ugm-3,0.5,R,ugm-3
08-01-1991,20:00,0.1,R,ugm-3,4.8,R,ugm-3,5.0,R,ugm-3,72,R,ugm-3,0.3,R,ugm-3
08-01-1991,21:00,0.0,R,ugm-3,4.6,R,ugm-3,4.6,R,ugm-3,76,R,ugm-3,0.3,R,ugm-3
08-01-1991,22:00,0.1,R,ugm-3,3.8,R,ugm-3,4.0,R,ugm-3,78,R,ugm-3,0.3,R,ugm-3
08-01-1991,23:00,0.1,R,ugm-3,3.1,R,ugm-3,3.2,R,ugm-3,78,R,ugm-3,0.3,R,ugm-3
08-01-1991,24:00,0.1,R,ugm-3,2.9,R,ugm-3,3.1,R,ugm-3,78,R,ugm-3,0.0,R,ugm-3
09-01-1991,01:00,0.0,R,ugm-3,1.9,R,ugm-3,1.9,R,ugm-3,78,R,ugm-3,0.0,R,ugm-3
09-01-1991,02:00,0.6,R,ugm-3,1.3,R,ugm-3,2.3,R,ugm-3,76,R,ugm-3,0.0,R,ugm-3
09-01-1991,03:00,0.5,R,ugm-3,1.7,R,ugm-3,2.5,R,ugm-3,76,R,ugm-3,0.3,R,ugm-3
09-01-1991,04:00,0.5,R,ugm-3,1.1,R,ugm-3,1.9,R,ugm-3,80,R,ugm-3,0.0,R,ugm-3
09-01-1991,05:00,0.0,R,ugm-3,1.9,R,ugm-3,1.9,R,ugm-3,78,R,ugm-3,0.0,R,ugm-3
09-01-1991,06:00,0.1,R,ugm-3,1.9,R,ugm-3,2.1,R,ugm-3,78,R,ugm-3,0.3,R,ugm-3
09-01-1991,07:00,0.4,R,ugm-3,3.4,R,ugm-3,4.0,R,ugm-3,78,R,ugm-3,0.5,R,ugm-3
09-01-1991,08:00,0.1,R,ugm-3,4.4,R,ugm-3,4.6,R,ugm-3,78,R,ugm-3,0.8,R,ugm-3
09-01-1991,09:00,0.0,R,ugm-3,2.1,R,ugm-3,2.1,R,ugm-3,78,R,ugm-3,0.5,R,ugm-3
09-01-1991,10:00,0.0,R,ugm-3,1.9,R,ugm-3,1.9,R,ugm-3,76,R,ugm-3,0.0,R,ugm-3
09-01-1991,11:00,0.4,R,ugm-3,2.5,R,ugm-3,3.1,R,ugm-3,76,R,ugm-3,0.0,R,ugm-3
09-01-1991,12:00,0.6,R,ugm-3,2.9,R,ugm-3,3.8,R,ugm-3,70,R,ugm-3,0.3,R,ugm-3
09-01-1991,13:00,0.6,R,ugm-3,3.4,R,ugm-3,4.4,R,ugm-3,74,R,ugm-3,0.5,R,ugm-3
09-01-1991,14:00,0.6,R,ugm-3,4.0,R,ugm-3,5.0,R,ugm-3,78,R,ugm-3,0.5,R,ugm-3
09-01-1991,15:00,0.6,R,ugm-3,4.0,R,ugm-3,5.0,R,ugm-3,80,R,ugm-3,0.5,R,ugm-3
09-01-1991,16:00,0.6,R,ugm-3,5.3,R,ugm-3,6.3,R,ugm-3,74,R,ugm-3,0.8,R,ugm-3
09-01-1991,17:00,0.0,R,ugm-3,5.5,R,ugm-3,5.5,R,ugm-3,70,R,ugm-3,0.3,R,ugm-3
09-01-1991,18:00,0.5,R,ugm-3,5.0,R,ugm-3,5.7,R,ugm-3,68,R,ugm-3,0.5,R,ugm-3
09-01-1991,19:00,0.5,R,ugm-3,4.0,R,ugm-3,4.8,R,ugm-3,70,R,ugm-3,0.3,R,ugm-3
09-01-1991,20:00,0.1,R,ugm-3,4.6,R,ugm-3,4.8,R,ugm-3,70,R,ugm-3,0.5,R,ugm-3
09-01-1991,21:00,0.1,R,ugm-3,4.6,R,ugm-3,4.8,R,ugm-3,72,R,ugm-3,0.5,R,ugm-3
09-01-1991,22:00,0.5,R,ugm-3,3.4,R,ugm-3,4.2,R,ugm-3,72,R,ugm-3,0.8,R,ugm-3
09-01-1991,23:00,0.1,R,ugm-3,4.6,R,ugm-3,4.8,R,ugm-3,68,R,ugm-3,0.5,R,ugm-3
09-01-1991,24:00,0.1,R,ugm-3,3.8,R,ugm-3,4.0,R,ugm-3,68,R,ugm-3,0.5,R,ugm-3
10-01-1991,01:00,0.3,R,ugm-3,3.2,R,ugm-3,3.6,R,ugm-3,68,R,ugm-3,0.3,R,ugm-3
10-01-1991,02:00,0.4,R,ugm-3,2.3,R,ugm-3,2.9,R,ugm-3,68,R,ugm-3,0.3,R,ugm-3
10-01-1991,03:00,0.1,R,ugm-3,3.1,R,ugm-3,3.2,R,ugm-3,68,R,ugm-3,0.3,R,ugm-3
10-01-1991,04:00,0.1,R,ugm-3,2.5,R,ugm-3,2.7,R,ugm-3,72,R,ugm-3,0.3,R,ugm-3
10-01-1991,05:00,0.5,R,ugm-3,4.0,R,ugm-3,4.8,R,ugm-3,74,R,ugm-3,0.3,R,ugm-3
10-01-1991,06:00,0.1,R,ugm-3,3.1,R,ugm-3,3.2,R,ugm-3,76,R,ugm-3,0.0,R,ugm-3
10-01-1991,07:00,0.4,R,ugm-3,2.7,R,ugm-3,3.2,R,ugm-3,80,R,ugm-3,0.0,R,ugm-3
10-01-1991,08:00,0.4,R,ugm-3,3.4,R,ugm-3,4.0,R,ugm-3,78,R,ugm-3,0.3,R,ugm-3
10-01-1991,09:00,0.5,R,ugm-3,5.5,R,ugm-3,6.3,R,ugm-3,76,R,ugm-3,0.8,R,ugm-3
10-01-1991,10:00,0.6,R,ugm-3,2.7,R,ugm-3,3.6,R,ugm-3,80,R,ugm-3,0.3,R,ugm-3
10-01-1991,11:00,0.6,R,ugm-3,3.4,R,ugm-3,4.4,R,ugm-3,82,R,ugm-3,0.3,R,ugm-3
10-01-1991,12:00,0.6,R,ugm-3,5.3,R,ugm-3,6.3,R,ugm-3,80,R,ugm-3,0.5,R,ugm-3
10-01-1991,13:00,0.6,R,ugm-3,3.6,R,ugm-3,4.6,R,ugm-3,80,R,ugm-3,0.3,R,ugm-3
10-01-1991,14:00,0.6,R,ugm-3,3.8,R,ugm-3,4.8,R,ugm-3,74,R,ugm-3,0.8,R,ugm-3
10-01-1991,15:00,0.6,R,ugm-3,4.0,R,ugm-3,5.0,R,ugm-3,76,R,ugm-3,0.5,R,ugm-3
10-01-1991,16:00,0.6,R,ugm-3,5.5,R,ugm-3,6.5,R,ugm-3,74,R,ugm-3,0.5,R,ugm-3
10-01-1991,17:00,0.4,R,ugm-3,6.3,R,ugm-3,6.9,R,ugm-3,72,R,ugm-3,0.3,R,ugm-3
10-01-1991,18:00,0.6,R,ugm-3,6.3,R,ugm-3,7.3,R,ugm-3,70,R,ugm-3,0.8,R,ugm-3
10-01-1991,19:00,0.4,R,ugm-3,9.2,R,ugm-3,9.7,R,ugm-3,66,R,ugm-3,1.6,R,ugm-3
10-01-1991,20:00,0.5,R,ugm-3,8.2,R,ugm-3,9.0,R,ugm-3,68,R,ugm-3,1.1,R,ugm-3
10-01-1991,21:00,0.6,R,ugm-3,5.5,R,ugm-3,6.5,R,ugm-3,70,R,ugm-3,0.8,R,ugm-3
10-01-1991,22:00,0.5,R,ugm-3,5.7,R,ugm-3,6.5,R,ugm-3,72,R,ugm-3,0.5,R,ugm-3
10-01-1991,23:00,0.1,R,ugm-3,3.8,R,ugm-3,4.0,R,ugm-3,78,R,ugm-3,0.3,R,ugm-3
10-01-1991,24:00,0.1,R,ugm-3,5.0,R,ugm-3,5.2,R,ugm-3,80,R,ugm-3,0.3,R,ugm-3
11-01-1991,01:00,0.6,R,ugm-3,4.4,R,ugm-3,5.3,R,ugm-3,82,R,ugm-3,0.5,R,ugm-3
11-01-1991,02:00,0.4,R,ugm-3,5.2,R,ugm-3,5.7,R,ugm-3,76,R,ugm-3,0.8,R,ugm-3
11-01-1991,03:00,0.5,R,ugm-3,3.4,R,ugm-3,4.2,R,ugm-3,78,R,ugm-3,0.5,R,ugm-3
11-01-1991,04:00,0.6,R,ugm-3,4.4,R,ugm-3,5.3,R,ugm-3,76,R,ugm-3,1.1,R,ugm-3
11-01-1991,05:00,0.5,R,ugm-3,4.6,R,ugm-3,5.3,R,ugm-3,76,R,ugm-3,0.8,R,ugm-3
11-01-1991,06:00,0.1,R,ugm-3,4.4,R,ugm-3,4.6,R,ugm-3,74,R,ugm-3,0.5,R,ugm-3
11-01-1991,07:00,0.4,R,ugm-3,2.5,R,ugm-3,3.1,R,ugm-3,76,R,ugm-3,0.5,R,ugm-3
11-01-1991,08:00,0.4,R,ugm-3,4.4,R,ugm-3,5.0,R,ugm-3,74,R,ugm-3,0.5,R,ugm-3
11-01-1991,09:00,0.5,R,ugm-3,4.0,R,ugm-3,4.8,R,ugm-3,72,R,ugm-3,0.5,R,ugm-3
11-01-1991,10:00,0.6,R,ugm-3,5.0,R,ugm-3,5.9,R,ugm-3,70,R,ugm-3,0.0,R,ugm-3
11-01-1991,11:00,0.6,R,ugm-3,2.7,R,ugm-3,3.6,R,ugm-3,72,R,ugm-3,0.3,R,ugm-3
11-01-1991,12:00,0.6,R,ugm-3,1.9,R,ugm-3,2.9,R,ugm-3,76,R,ugm-3,0.3,R,ugm-3
11-01-1991,13:00,0.6,R,ugm-3,4.0,R,ugm-3,5.0,R,ugm-3,78,R,ugm-3,0.3,R,ugm-3
11-01-1991,14:00,1.0,R,ugm-3,6.5,R,ugm-3,8.0,R,ugm-3,70,R,ugm-3,0.8,R,ugm-3
11-01-1991,15:00,1.4,R,ugm-3,12.2,R,ugm-3,14.3,R,ugm-3,60,R,ugm-3,1.6,R,ugm-3
11-01-1991,16:00,1.1,R,ugm-3,17.0,R,ugm-3,18.7,R,ugm-3,58,R,ugm-3,2.1,R,ugm-3
11-01-1991,17:00,0.4,R,ugm-3,9.2,R,ugm-3,9.7,R,ugm-3,68,R,ugm-3,1.9,R,ugm-3
11-01-1991,18:00,0.4,R,ugm-3,7.3,R,ugm-3,7.8,R,ugm-3,68,R,ugm-3,0.8,R,ugm-3
11-01-1991,19:00,0.5,R,ugm-3,9.2,R,ugm-3,9.9,R,ugm-3,64,R,ugm-3,0.8,R,ugm-3
11-01-1991,20:00,0.6,R,ugm-3,7.6,R,ugm-3,8.6,R,ugm-3,66,R,ugm-3,0.5,R,ugm-3
11-01-1991,21:00,0.6,R,ugm-3,5.5,R,ugm-3,6.5,R,ugm-3,68,R,ugm-3,0.5,R,ugm-3
11-01-1991,22:00,0.5,R,ugm-3,7.3,R,ugm-3,8.0,R,ugm-3,66,R,ugm-3,0.8,R,ugm-3
11-01-1991,23:00,0.1,R,ugm-3,3.6,R,ugm-3,3.8,R,ugm-3,70,R,ugm-3,0.3,R,ugm-3
11-01-1991,24:00,0.5,R,ugm-3,2.1,R,ugm-3,2.9,R,ugm-3,74,R,ugm-3,0.3,R,ugm-3
12-01-1991,01:00,0.6,R,ugm-3,3.4,R,ugm-3,4.4,R,ugm-3,72,R,ugm-3,0.5,R,ugm-3
12-01-1991,02:00,0.6,R,ugm-3,3.2,R,ugm-3,4.2,R,ugm-3,64,R,ugm-3,0.3,R,ugm-3
12-01-1991,03:00,0.6,R,ugm-3,1.1,R,ugm-3,2.1,R,ugm-3,74,R,ugm-3,0.0,R,ugm-3
12-01-1991,04:00,0.6,R,ugm-3,1.7,R,ugm-3,2.7,R,ugm-3,72,R,ugm-3,0.0,R,ugm-3
12-01-1991,05:00,0.6,R,ugm-3,1.1,R,ugm-3,2.1,R,ugm-3,72,R,ugm-3,0.0,R,ugm-3
12-01-1991,06:00,0.6,R,ugm-3,2.5,R,ugm-3,3.4,R,ugm-3,72,R,ugm-3,0.0,R,ugm-3
12-01-1991,07:00,0.6,R,ugm-3,1.9,R,ugm-3,2.9,R,ugm-3,74,R,ugm-3,0.0,R,ugm-3
12-01-1991,08:00,0.4,R,ugm-3,4.2,R,ugm-3,4.8,R,ugm-3,70,R,ugm-3,0.3,R,ugm-3
12-01-1991,09:00,0.5,R,ugm-3,4.8,R,ugm-3,5.5,R,ugm-3,66,R,ugm-3,0.5,R,ugm-3
12-01-1991,10:00,0.6,R,ugm-3,4.8,R,ugm-3,5.7,R,ugm-3,68,R,ugm-3,0.5,R,ugm-3
12-01-1991,11:00,0.6,R,ugm-3,4.6,R,ugm-3,5.5,R,ugm-3,64,R,ugm-3,0.3,R,ugm-3
12-01-1991,12:00,0.6,R,ugm-3,4.8,R,ugm-3,5.7,R,ugm-3,66,R,ugm-3,0.5,R,ugm-3
12-01-1991,13:00,9.8,R,ugm-3,33.6,R,ugm-3,48.5,R,ugm-3,34,R,ugm-3,1.3,R,ugm-3
12-01-1991,14:00,6.0,R,ugm-3,32.1,R,ugm-3,41.3,R,ugm-3,38,R,ugm-3,2.1,R,ugm-3
12-01-1991,15:00,2.4,R,ugm-3,20.2,R,ugm-3,23.9,R,ugm-3,44,R,ugm-3,1.6,R,ugm-3
12-01-1991,16:00,3.5,R,ugm-3,36.7,R,ugm-3,42.0,R,ugm-3,30,R,ugm-3,12.0,R,ugm-3
12-01-1991,17:00,24.5,R,ugm-3,74.7,R,ugm-3,112.1,R,ugm-3,4,R,ugm-3,45.8,R,ugm-3
12-01-1991,18:00,36.6,R,ugm-3,85.4,R,ugm-3,141.3,R,ugm-3,4,R,ugm-3,55.3,R,ugm-3
12-01-1991,19:00,4.5,R,ugm-3,63.0,R,ugm-3,69.9,R,ugm-3,8,R,ugm-3,44.4,R,ugm-3
12-01-1991,20:00,1.0,R,ugm-3,56.5,R,ugm-3,58.1,R,ugm-3,8,R,ugm-3,30.1,R,ugm-3
12-01-1991,21:00,1.1,R,ugm-3,59.0,R,ugm-3,60.7,R,ugm-3,6,R,ugm-3,32.7,R,ugm-3
12-01-1991,22:00,5.9,R,ugm-3,61.1,R,ugm-3,70.1,R,ugm-3,4,R,ugm-3,42.8,R,ugm-3
12-01-1991,23:00,0.6,R,ugm-3,47.6,R,ugm-3,48.5,R,ugm-3,14,R,ugm-3,29.5,R,ugm-3
12-01-1991,24:00,1.1,R,ugm-3,53.7,R,ugm-3,55.4,R,ugm-3,6,R,ugm-3,27.7,R,ugm-3
13-01-1991,01:00,2.3,R,ugm-3,50.2,R,ugm-3,53.7,R,ugm-3,4,R,ugm-3,28.5,R,ugm-3
13-01-1991,02:00,0.6,R,ugm-3,38.8,R,ugm-3,39.7,R,ugm-3,8,R,ugm-3,19.7,R,ugm-3
13-01-1991,03:00,1.0,R,ugm-3,42.2,R,ugm-3,43.7,R,ugm-3,6,R,ugm-3,23.4,R,ugm-3
13-01-1991,04:00,4.4,R,ugm-3,50.4,R,ugm-3,57.1,R,ugm-3,2,R,ugm-3,41.8,R,ugm-3
13-01-1991,05:00,1.8,R,ugm-3,48.7,R,ugm-3,51.4,R,ugm-3,4,R,ugm-3,42.3,R,ugm-3
13-01-1991,06:00,0.6,R,ugm-3,42.6,R,ugm-3,43.5,R,ugm-3,8,R,ugm-3,35.4,R,ugm-3
13-01-1991,07:00,0.6,R,ugm-3,33.6,R,ugm-3,34.6,R,ugm-3,12,R,ugm-3,25.3,R,ugm-3
13-01-1991,08:00,0.6,R,ugm-3,31.5,R,ugm-3,32.5,R,ugm-3,16,R,ugm-3,18.1,R,ugm-3
13-01-1991,09:00,2.9,R,ugm-3,26.7,R,ugm-3,31.1,R,ugm-3,20,R,ugm-3,22.6,R,ugm-3
13-01-1991,10:00,7.1,R,ugm-3,25.8,R,ugm-3,36.7,R,ugm-3,26,R,ugm-3,37.5,R,ugm-3
13-01-1991,11:00,9.3,R,ugm-3,25.2,R,ugm-3,39.3,R,ugm-3,32,R,ugm-3,41.8,R,ugm-3
13-01-1991,12:00,8.3,R,ugm-3,21.6,R,ugm-3,34.2,R,ugm-3,36,R,ugm-3,37.0,R,ugm-3
13-01-1991,13:00,3.6,R,ugm-3,11.8,R,ugm-3,17.4,R,ugm-3,50,R,ugm-3,18.6,R,ugm-3
13-01-1991,14:00,1.9,R,ugm-3,6.3,R,ugm-3,9.2,R,ugm-3,56,R,ugm-3,7.7,R,ugm-3
13-01-1991,15:00,1.3,R,ugm-3,6.9,R,ugm-3,8.8,R,ugm-3,56,R,ugm-3,4.5,R,ugm-3
13-01-1991,16:00,1.0,R,ugm-3,10.7,R,ugm-3,12.2,R,ugm-3,52,R,ugm-3,4.5,R,ugm-3
13-01-1991,17:00,0.6,R,ugm-3,12.0,R,ugm-3,13.0,R,ugm-3,46,R,ugm-3,4.8,R,ugm-3
13-01-1991,18:00,0.6,R,ugm-3,13.4,R,ugm-3,14.3,R,ugm-3,48,R,ugm-3,4.8,R,ugm-3
13-01-1991,19:00,0.6,R,ugm-3,19.7,R,ugm-3,20.6,R,ugm-3,38,R,ugm-3,9.6,R,ugm-3
13-01-1991,20:00,0.6,R,ugm-3,22.9,R,ugm-3,23.9,R,ugm-3,36,R,ugm-3,6.9,R,ugm-3
13-01-1991,21:00,0.6,R,ugm-3,33.2,R,ugm-3,34.2,R,ugm-3,26,R,ugm-3,7.7,R,ugm-3
13-01-1991,22:00,0.6,R,ugm-3,32.1,R,ugm-3,33.0,R,ugm-3,28,R,ugm-3,8.5,R,ugm-3